Waarnemingen

Advertentie
Mijn weer
Marseille/Marignane, Frankrijk (7650): temperatuur & dauwpunt: 14.10.2018 15:00:00 - 20.10.2018 15:00:00 (CEST)Marseille/Marignane, Frankrijk (7650): temperatuur 5cm: 14.10.2018 15:00:00 - 20.10.2018 15:00:00 (CEST)Marseille/Marignane, Frankrijk (7650): temperatuur -20cm & temperatuur -100cm: 14.10.2018 15:00:00 - 20.10.2018 15:00:00 (CEST)Marseille/Marignane, Frankrijk (7650): windsnelheid & windstoten: 14.10.2018 15:00:00 - 20.10.2018 15:00:00 (CEST)Marseille/Marignane, Frankrijk (7650): windrichting: 14.10.2018 15:00:00 - 20.10.2018 15:00:00 (CEST)Marseille/Marignane, Frankrijk (7650): luchtdruk: 14.10.2018 15:00:00 - 20.10.2018 15:00:00 (CEST)Marseille/Marignane, Frankrijk (7650): zicht: 14.10.2018 15:00:00 - 20.10.2018 15:00:00 (CEST)Marseille/Marignane, Frankrijk (7650): Zonneschijnduur: 14.10.2018 15:00:00 - 20.10.2018 15:00:00 (CEST)Marseille/Marignane, Frankrijk (7650): neerslag: 14.10.2018 15:00:00 - 20.10.2018 15:00:00 (CEST)
Datum & Tijd tt [°C] td [°C] tt 5cm [°C] tt -20cm [°C] tt -100cm [°C] ff [km/u] ff [kn] fx [km/u] fx [kn] dd ppp [hPa] vv [km] sd [min] rr [mm]
20.10.2018 15:00:00 - - - - - - - - - - - - - -
20.10.2018 14:00:00 21,2 15,5 22,2 18,3 20,0 6 3 14 7 ZW 1022,5 18 0 0,0
20.10.2018 13:00:00 21,0 16,0 23,3 17,7 19,9 11 6 16 9 WZW 1023,1 14 49 0,0
20.10.2018 12:00:00 19,7 14,9 22,1 17,2 20,0 8 4 12 6 W 1023,3 12 60 0,0
20.10.2018 11:00:00 19,5 15,2 20,9 17,0 20,0 4 2 9 5 W 1023,1 13 55 0,0
20.10.2018 10:00:00 18,4 14,7 15,0 17,0 20,0 4 2 10 6 ZO 1022,6 12 55 0,0
20.10.2018 09:00:00 15,3 13,7 12,7 17,2 20,0 7 4 12 6 ZO 1021,9 8 40 0,0
20.10.2018 08:00:00 14,9 13,6 11,7 17,4 20,0 9 5 13 7 NNW 1021,2 10 0 0,0
20.10.2018 07:00:00 13,9 12,5 12,0 17,7 20,0 4 2 12 6 OZO 1020,7 11 0 0,0
20.10.2018 06:00:00 14,1 12,8 12,5 17,9 20,0 9 5 11 6 ZO 1020,0 9 0 0,0
20.10.2018 05:00:00 14,5 13,0 12,9 18,1 20,0 8 5 11 6 ZO 1019,8 10 0 0,0
20.10.2018 04:00:00 15,6 13,8 12,7 18,4 20,0 3 1 11 6 N 1019,8 11 0 0,0
20.10.2018 03:00:00 15,6 13,8 13,3 18,7 20,0 6 3 10 5 OZO 1019,9 8 0 0,0
20.10.2018 02:00:00 15,5 14,0 13,6 18,9 20,0 3 2 11 6 OZO 1019,9 10 0 0,0
20.10.2018 01:00:00 16,1 14,3 14,5 19,2 20,0 7 4 13 7 ZZO 1019,9 11 0 0,0
20.10.2018 00:00:00 16,1 14,3 14,4 19,5 20,0 7 4 9 5 ZO 1019,7 11 0 0,0
19.10.2018 23:00:00 16,6 14,6 15,1 19,8 20,0 3 2 9 5 Z 1019,5 13 0 0,0
19.10.2018 22:00:00 18,1 15,4 15,6 20,1 20,0 3 2 8 4 ZO 1019,2 13 0 0,0
19.10.2018 21:00:00 19,4 15,3 16,1 20,4 20,0 4 2 9 5 OZO 1018,9 14 0 0,0
19.10.2018 20:00:00 20,0 16,0 17,6 20,6 20,0 6 4 13 7 ZZO 1018,6 7 0 0,0
19.10.2018 19:00:00 20,7 15,5 19,4 20,7 20,0 11 6 23 12 W 1017,8 24 4 0,0
19.10.2018 18:00:00 23,1 15,9 23,3 20,7 20,0 12 7 18 10 NW 1017,1 28 60 0,0
19.10.2018 17:00:00 23,4 16,2 24,7 20,5 20,0 10 6 14 7 W 1017,0 24 47 0,0
19.10.2018 16:00:00 25,1 13,0 26,7 20,1 20,0 10 5 19 10 WZW 1016,9 33 60 0,0
19.10.2018 15:00:00 24,1 15,0 26,3 19,5 20,0 14 8 19 10 WZW 1017,0 30 57 0,0
19.10.2018 14:00:00 23,2 16,7 25,6 18,8 20,0 9 5 13 7 W 1017,2 23 60 0,0
19.10.2018 13:00:00 21,7 15,5 22,7 18,3 20,0 10 5 13 7 WZW 1017,9 17 38 0,0
19.10.2018 12:00:00 20,1 15,1 22,4 17,9 20,0 5 3 9 5 WNW 1018,2 19 36 0,0
19.10.2018 11:00:00 20,2 15,6 19,9 17,7 20,0 7 4 13 7 W 1018,1 15 40 0,0
19.10.2018 10:00:00 19,3 15,0 17,0 17,7 20,0 3 2 10 6 ZW 1017,6 20 54 0,0
19.10.2018 09:00:00 16,9 14,4 14,0 17,8 20,0 8 4 10 6 ZO 1016,9 14 27 0,0
19.10.2018 08:00:00 15,4 13,8 13,9 18,0 20,0 6 3 9 5 ZW 1016,2 14 0 0,0
19.10.2018 07:00:00 16,8 13,9 13,8 18,2 20,0 6 3 19 11 NO 1015,9 17 0 0,0
19.10.2018 06:00:00 15,6 14,0 13,7 18,4 20,0 5 3 8 4 O 1015,8 15 0 0,0
19.10.2018 05:00:00 16,2 13,9 14,3 18,6 20,0 4 2 12 6 ZZO 1015,5 18 0 0,0
19.10.2018 04:00:00 15,9 14,4 14,4 18,9 20,0 4 2 8 4 ZO 1015,3 13 0 0,0
19.10.2018 03:00:00 16,1 15,1 14,6 19,1 20,0 6 3 13 7 ZZO 1015,4 11 0 0,0
19.10.2018 02:00:00 16,3 15,0 14,8 19,3 20,0 2 1 9 5 ZZO 1015,5 14 0 0,0
19.10.2018 01:00:00 16,8 15,1 15,2 19,6 20,0 5 3 8 5 ZO 1015,2 12 0 0,0
19.10.2018 00:00:00 17,7 15,9 15,4 19,9 20,0 4 2 9 5 NNO 1015,1 11 0 0,0
18.10.2018 23:00:00 18,4 15,5 16,7 20,1 20,0 6 3 11 6 ZO 1014,7 11 0 0,0
18.10.2018 22:00:00 18,7 15,9 17,6 20,3 20,0 7 4 13 7 Z 1014,2 9 0 0,0
18.10.2018 21:00:00 19,6 16,4 18,4 20,5 20,0 5 3 25 14 ZO 1013,6 10 0 0,0
18.10.2018 20:00:00 21,2 17,2 20,0 20,7 20,0 10 6 27 14 N 1013,5 14 0 0,0
18.10.2018 19:00:00 22,2 16,2 21,2 20,8 20,0 5 3 27 14 N 1013,0 21 0 0,0
18.10.2018 18:00:00 23,2 16,5 23,0 20,8 20,0 14 7 29 16 N 1012,3 23 7 0,0
18.10.2018 17:00:00 23,7 16,2 24,2 20,6 20,0 8 4 14 8 NNW 1012,4 19 16 0,0
18.10.2018 16:00:00 22,6 17,3 22,9 20,3 20,0 10 6 16 9 W 1012,7 15 7 0,0
18.10.2018 15:00:00 22,4 17,3 23,5 19,9 20,0 10 5 14 8 WZW 1013,0 12 37 0,0
18.10.2018 14:00:00 21,6 17,0 22,9 19,4 20,0 9 5 15 8 W 1013,5 14 27 0,0
18.10.2018 13:00:00 21,5 16,5 23,5 19,0 20,0 8 4 12 7 W 1013,9 8 49 0,0
18.10.2018 12:00:00 20,8 16,8 22,3 18,7 20,1 7 4 11 6 WNW 1014,1 18 34 0,0
18.10.2018 11:00:00 20,3 16,7 20,2 18,5 20,0 9 5 12 6 WZW 1014,2 16 8 0,0
18.10.2018 10:00:00 19,6 15,5 18,7 18,5 20,0 7 4 9 5 ZZW 1014,3 15 21 0,0
18.10.2018 09:00:00 18,3 15,9 17,4 18,5 20,1 2 1 25 13 ZZW 1014,1 19 0 0,2
18.10.2018 08:00:00 18,4 15,6 17,2 18,6 20,1 13 7 16 9 N 1014,0 14 0 0,2
18.10.2018 07:00:00 18,4 15,3 17,8 18,7 20,1 10 5 18 10 NO 1013,9 24 0 0,0
18.10.2018 06:00:00 18,4 15,3 17,5 18,8 20,0 11 6 19 11 NO 1013,6 23 0 0,0
18.10.2018 05:00:00 18,7 15,4 17,9 18,9 20,0 7 4 16 9 N 1013,5 25 0 0,0
18.10.2018 04:00:00 19,0 15,7 17,7 19,1 20,1 8 4 13 7 NNO 1013,4 27 0 0,0
18.10.2018 03:00:00 18,9 15,6 17,5 19,2 20,1 5 3 26 14 ONO 1014,2 29 0 0,0
18.10.2018 02:00:00 18,6 16,0 17,2 19,3 20,1 18 10 45 24 NO 1014,7 27 0 0,0
18.10.2018 01:00:00 18,4 16,2 17,2 19,4 20,1 18 10 33 18 NO 1015,0 3,7 0 1,6
18.10.2018 00:00:00 18,3 17,5 18,0 19,5 20,1 2 1 9 5 W 1015,3 4,8 0 0,0
17.10.2018 23:00:00 18,7 17,7 18,0 19,7 20,1 4 2 9 5 NNW 1015,1 6 0 0,2
17.10.2018 22:00:00 18,7 17,4 18,0 19,8 20,1 2 1 6 3 NW 1015,1 8 0 0,0
17.10.2018 21:00:00 19,1 17,1 17,9 19,9 20,1 5 3 8 4 WNW 1015,1 10 0 0,0
17.10.2018 20:00:00 19,1 17,4 18,0 20,1 20,1 5 3 18 10 ZW 1014,9 15 0 0,9
17.10.2018 19:00:00 19,9 17,9 18,6 20,1 20,1 13 7 19 10 ONO 1014,7 3,1 0 2,8
17.10.2018 18:00:00 21,4 16,4 21,9 20,1 20,1 4 2 11 6 ZO 1014,0 19 0 0,0
17.10.2018 17:00:00 21,3 16,7 21,2 20,0 20,1 8 4 14 7 ZZO 1014,3 17 0 0,0
17.10.2018 16:00:00 20,9 16,5 21,0 19,8 20,1 8 4 18 10 W 1014,4 15 0 0,0
17.10.2018 15:00:00 21,5 16,7 22,6 19,3 20,1 12 7 18 10 WZW 1014,4 12 43 0,0
17.10.2018 14:00:00 21,4 16,8 22,0 18,8 20,1 13 7 16 9 WZW 1015,3 15 43 0,0
17.10.2018 13:00:00 19,6 16,2 21,8 18,3 20,1 11 6 15 8 W 1016,3 11 23 0,0
17.10.2018 12:00:00 19,4 16,1 21,1 17,8 20,1 11 6 15 8 W 1016,8 15 54 0,0
17.10.2018 11:00:00 18,7 15,9 17,5 17,7 20,1 8 4 11 6 WNW 1017,0 13 15 0,0
17.10.2018 10:00:00 17,2 15,5 16,3 17,7 20,2 4 2 18 10 N 1017,1 14 0 0,0
17.10.2018 09:00:00 16,7 15,2 16,0 17,8 20,1 6 3 20 11 N 1017,1 14 0 0,0
17.10.2018 08:00:00 16,6 15,1 15,7 17,8 20,2 4 2 8 4 NW 1017,0 14 0 0,6
17.10.2018 07:00:00 16,6 15,0 15,9 17,9 20,2 4 2 18 10 NO 1017,2 4,8 0 0,2
17.10.2018 06:00:00 16,7 15,4 15,9 17,9 20,2 7 4 14 8 NW 1017,2 11 0 0,4
17.10.2018 05:00:00 16,6 15,6 16,2 18,0 20,2 3 2 10 5 ONO 1017,3 8 0 0,0
17.10.2018 04:00:00 16,5 15,7 16,2 18,1 20,2 6 4 9 5 ZO 1017,6 3,4 0 0,0
17.10.2018 03:00:00 16,5 15,7 16,1 18,2 20,2 7 4 10 6 NNW 1018,1 4,4 0 0,2
17.10.2018 02:00:00 16,8 16,0 16,4 18,2 20,2 6 4 9 5 ZW 1018,6 2,2 0 1,4
17.10.2018 01:00:00 17,1 16,1 16,4 18,3 20,2 0 0 9 5 N 1018,7 4,6 0 0,2
17.10.2018 00:00:00 17,3 15,8 16,7 18,4 20,2 4 2 8 4 ZZO 1018,8 4,4 0 0,0
16.10.2018 23:00:00 17,4 15,4 17,0 18,5 20,2 3 2 6 3 ZZO 1018,9 7 0 0,0
16.10.2018 22:00:00 17,5 15,7 17,1 18,7 20,2 5 3 9 5 ZO 1018,9 6 0 0,0
16.10.2018 21:00:00 18,0 14,9 16,7 18,8 20,2 5 3 7 4 NNW 1018,7 7 0 0,0
16.10.2018 20:00:00 17,8 15,1 17,1 18,9 20,2 3 2 10 5 NW 1018,7 10 0 0,0
16.10.2018 19:00:00 18,4 14,5 18,1 19,0 20,2 9 5 17 9 W 1018,2 15 0 0,0
16.10.2018 18:00:00 19,2 15,1 16,9 18,9 20,2 9 5 29 16 NNW 1017,8 13 0 0,0
16.10.2018 17:00:00 20,9 14,1 21,1 18,6 20,2 19 10 31 17 NNO 1017,5 18 47 0,0
16.10.2018 16:00:00 20,9 16,1 23,4 18,1 20,2 17 9 26 14 N 1017,3 10 56 0,0
16.10.2018 15:00:00 20,8 16,6 22,0 17,7 20,2 20 11 26 14 N 1017,2 11 26 0,0
16.10.2018 14:00:00 20,0 15,4 17,8 17,3 20,2 8 4 19 10 N 1017,6 9 15 0,0
16.10.2018 13:00:00 18,2 15,6 16,9 17,1 20,2 6 4 13 7 NNW 1018,0 11 0 0,2
16.10.2018 12:00:00 17,2 15,4 15,9 17,1 20,2 2 1 23 13 ZZW 1018,3 4,7 0 1,6
16.10.2018 11:00:00 17,2 14,7 15,7 17,1 20,2 13 7 22 12 O 1017,8 7 0 0,6
16.10.2018 10:00:00 17,4 14,1 15,7 17,1 20,3 10 6 16 9 O 1017,3 8 0 0,4
16.10.2018 09:00:00 17,5 14,0 15,8 17,1 20,3 8 4 27 14 ZO 1016,7 8 0 0,0
16.10.2018 08:00:00 17,1 14,4 15,6 17,1 20,3 5 3 11 6 NNO 1015,9 10 0 0,2
16.10.2018 07:00:00 17,2 14,5 15,7 17,2 20,3 5 3 19 11 N 1015,6 8 0 0,2
16.10.2018 06:00:00 17,7 14,4 15,9 17,2 20,3 11 6 27 15 O 1015,5 11 0 0,0
16.10.2018 05:00:00 17,8 14,3 15,5 17,2 20,3 22 12 39 21 ZO 1015,0 13 0 0,2
16.10.2018 04:00:00 17,4 14,1 15,5 17,3 20,3 17 9 35 19 ZO 1015,2 7 0 0,4
16.10.2018 03:00:00 17,9 14,2 15,8 17,3 20,3 29 16 44 24 OZO 1015,4 10 0 0,0
16.10.2018 02:00:00 17,5 14,0 15,7 17,3 20,3 19 10 34 18 OZO 1015,3 15 0 0,0
16.10.2018 01:00:00 16,7 15,1 15,7 17,4 20,3 17 9 32 17 ZO 1015,7 3,2 0 1,4
16.10.2018 00:00:00 17,1 14,6 15,4 17,5 20,3 16 9 40 21 OZO 1015,3 12 0 0,8
15.10.2018 23:00:00 17,6 14,1 15,5 17,5 20,3 31 17 45 25 O 1015,3 5 0 0,0
15.10.2018 22:00:00 17,4 14,3 15,6 17,6 20,4 22 12 40 22 OZO 1014,7 11 0 1,0
15.10.2018 21:00:00 18,0 14,3 15,7 17,7 20,3 5 3 30 16 Z 1013,6 12 0 0,4
15.10.2018 20:00:00 17,7 14,2 15,6 17,7 20,4 22 12 40 22 ZO 1013,2 7 0 0,8
15.10.2018 19:00:00 18,0 13,9 15,8 17,7 20,3 21 11 43 23 ZO 1012,5 9 0 0,8
15.10.2018 18:00:00 18,8 13,6 16,0 17,7 20,3 26 14 59 32 OZO 1011,6 8 0 0,4
15.10.2018 17:00:00 21,4 13,1 16,8 17,6 20,3 36 20 63 34 OZO 1010,5 21 0 0,2
15.10.2018 16:00:00 20,4 13,4 16,3 17,4 20,3 30 16 71 38 O 1010,3 15 0 0,4
15.10.2018 15:00:00 21,7 12,0 17,9 17,3 20,3 43 23 65 35 OZO 1010,1 20 0 0,0
15.10.2018 14:00:00 22,8 12,1 22,3 17,1 20,4 32 17 64 34 O 1010,0 21 0 0,0
15.10.2018 13:00:00 22,3 11,4 20,4 17,0 20,4 38 20 66 36 O 1010,2 23 0 0,0
15.10.2018 12:00:00 21,6 11,0 15,6 17,0 20,4 43 23 71 38 O 1010,9 19 0 0,0
15.10.2018 11:00:00 20,6 11,8 15,7 16,9 20,4 40 22 66 36 OZO 1011,0 14 0 0,2
15.10.2018 10:00:00 22,2 9,4 20,5 16,9 20,4 30 16 50 27 OZO 1010,6 27 0 0,0
15.10.2018 09:00:00 21,2 10,1 20,0 16,9 20,4 31 17 50 27 O 1010,1 24 0 0,0
15.10.2018 08:00:00 21,0 10,2 19,5 17,0 20,4 30 16 49 26 O 1010,0 26 0 0,0
15.10.2018 07:00:00 20,9 11,2 20,0 17,0 20,4 29 15 58 32 O 1010,2 24 0 0,0
15.10.2018 06:00:00 21,1 11,7 19,7 17,1 20,4 36 19 60 32 O 1010,3 25 0 0,0
15.10.2018 05:00:00 20,8 12,0 19,2 17,2 20,4 31 17 50 27 O 1011,0 25 0 0,0
15.10.2018 04:00:00 20,4 10,5 18,5 17,3 20,4 24 13 45 24 O 1011,2 29 0 0,0
15.10.2018 03:00:00 20,3 9,5 18,6 17,5 20,4 18 10 29 16 OZO 1011,9 32 0 0,0
15.10.2018 02:00:00 20,8 10,3 18,0 17,7 20,4 18 10 36 19 O 1012,4 31 0 0,0
15.10.2018 01:00:00 20,0 10,4 14,5 17,9 20,4 21 11 31 17 OZO 1012,8 28 0 0,0
15.10.2018 00:00:00 18,2 10,6 14,8 18,2 20,4 11 6 19 11 O 1013,4 25 0 0,0
14.10.2018 23:00:00 18,7 10,5 16,6 18,4 20,4 11 6 16 9 ONO 1013,7 28 0 0,0
14.10.2018 22:00:00 19,7 10,7 17,3 18,6 20,4 13 7 36 19 O 1013,9 29 0 0,0
14.10.2018 21:00:00 20,4 12,1 19,2 18,7 20,4 23 12 38 20 OZO 1013,8 23 0 0,0
14.10.2018 20:00:00 20,6 13,5 19,8 18,9 20,4 27 14 45 24 OZO 1013,5 18 0 0,0
14.10.2018 19:00:00 21,0 13,2 19,9 19,0 20,4 27 15 40 22 OZO 1013,2 20 0 0,0
14.10.2018 18:00:00 21,2 13,4 20,6 19,0 20,4 31 17 56 30 OZO 1012,9 20 0 0,0
14.10.2018 17:00:00 22,2 12,4 22,4 19,0 20,4 31 17 55 30 OZO 1013,0 20 1 0,0
14.10.2018 16:00:00 22,9 12,8 23,1 18,8 20,4 36 20 57 31 OZO 1013,5 24 16 0,0
14.10.2018 15:00:00 22,9 13,7 23,3 18,5 20,4 32 17 59 32 ZO 1014,4 20 7 0,0

tt = temperatuur
td = dauwpunt
tt 5cm = temperatuur 5cm
tt -20cm = temperatuur -20cm
tt -100cm = temperatuur -100cm
ff = windsnelheid
fx = windstoten
dd = windrichting
ppp = luchtdruk
vv = zicht
sd = Zonneschijnduur
rr = neerslag

Weerstations in de omgeving